Location: Bjelajci
(45.0103°N, 16.1758°E)
Time: 04:22:10
(UTC+00:00)

Cosmos 2100 Rocket - Pass Details

Date: 14 July 2020
Orbit: 955 x 1002 km, 82.9° (Epoch: 11 August)

Event Time Altitude Azimuth Distance (km) Brightness Sun altitude
Exits shadow 00:45:06 32° 215° (SW) 1,608 4.6 -19.3°
Maximum altitude 00:47:57 60° 281° (WNW) 1,111 4.2 -19.1°
Drops below altitude 10° 00:54:08 10° 2° (N) 2,725 7.3 -18.6°
Sets 00:56:41 0° 6° (N) 3,670 8.3 -18.4°
